Regional Weather Roundup
Issued by NWS

Home | Current Version | Previous Version | Graphics & Text | Print | Product List | Glossary On
Versions: 1 2 3 4 5 6 7 8 9 10 11 12 13 14 15 16 17 18 19 20 21 22 23 24 25 26 27 28 29 30 31 32 33 34 35 36 37 38 39 40 41 42 43 44 45 46 47 48 49 50
000
ASUS43 KBIS 281001
RWRND

NORTH DAKOTA REGIONAL WEATHER ROUNDUP
NATIONAL WEATHER SERVICE BISMARCK ND
400 AM CST SAT FEB 28 2015

NOTE: "FAIR" INDICATES FEW OR NO CLOUDS BELOW 12,000 FEET WITH NO
SIGNIFICANT WEATHER AND/OR OBSTRUCTIONS TO VISIBILITY.


NDZ001>003-009>011-017-281100-
NORTHWEST NORTH DAKOTA

CITY           SKY/WX    TMP DP  RH WIND       PRES   REMARKS
WILLISTON      CLOUDY     7   0  73 N9        30.08S WCI  -7
MINOT          CLOUDY    14   2  58 SW14      30.03F WCI  -1
$$

NDZ018>021-031>035-040>046-281100-
SOUTHWEST NORTH DAKOTA

CITY           SKY/WX    TMP DP  RH WIND       PRES   REMARKS
BISMARCK       CLOUDY    13   3  64 SE9       30.08F WCI   1
DICKINSON      PTCLDY     5   0  79 SW6       29.97F WCI  -6
GARRISON         N/A     11   3  70 S3        30.05F
HETTINGER ARPT PTCLDY     4  -1  80 CALM      30.00F
$$

NDZ004>008-012>016-024-026-027-054-281100-
NORTHEAST NORTH DAKOTA

CITY           SKY/WX    TMP DP  RH WIND       PRES   REMARKS
GRAND FORKS    PTCLDY     1  -5  75 S10       30.25F WCI -15
GRND FRKS AFB  PTCLDY     3  -4  72 S10       30.23F WCI -12
DEVILS LAKE    CLOUDY     7  -4  61 S7        30.12F WCI  -5
$$

NDZ022-023-025-028>030-036>039-047>053-281100-
SOUTHEAST NORTH DAKOTA

CITY           SKY/WX    TMP DP  RH WIND       PRES   REMARKS
FARGO          PTCLDY     6  -2  69 S14       30.29F WCI -11
JAMESTOWN      PTCLDY     4  -2  76 S13       30.15F WCI -13
$$



USA.gov is the U.S. government's official web portal to all federal, state and local government web resources and services.